When you browse on this site, cookies collect data to enhance your experience and personalize the content and advertising you see.
Visit our Privacy Policy to learn more. By continuing to use the site, you agree to this use of cookies and data.
  • In Österreich
  • Länderverzeichnis
  • Für 7 Tage
  • Wassertemperatur
  • Satellitenkarten
  • Wetterkarte
  • News
  • Widgets
  • user-avatar
    Anmelden

    Stündliche Wetter Prutz

    Heute, 26 Mai, Sonntag

    Zeit Temperatur Niederschläge Wind Luftdruck Luftfeuchtigkeit
    00:00 +5°C° 0.5 mm 0 m/S 632 mmHg 93%
    01:00 +5°C° 0 mm 0 m/S 632 mmHg 92%
    02:00 +5°C° 0.3 mm 0 m/S 632 mmHg 92%
    03:00 +5°C° 0.3 mm 0 m/S 632 mmHg 93%
    04:00 +5°C° 0.3 mm 0 m/S 632 mmHg 93%
    05:00 +6°C° 0.1 mm 0 m/S 632 mmHg 93%
    06:00 +7°C° 0.1 mm 1 m/S 632 mmHg 92%
    07:00 +8°C° 0 mm 1 m/S 633 mmHg 92%
    08:00 +9°C° 0.1 mm 1 m/S 633 mmHg 88%
    09:00 +10°C° 0.1 mm 1 m/S 633 mmHg 83%
    10:00 +11°C° 0.1 mm 1 m/S 633 mmHg 79%
    11:00 +12°C° 0.2 mm 1 m/S 633 mmHg 79%
    12:00 +12°C° 0.2 mm 1 m/S 633 mmHg 79%
    13:00 +13°C° 0.2 mm 1 m/S 633 mmHg 79%
    14:00 +13°C° 0.4 mm 1 m/S 633 mmHg 80%
    15:00 +13°C° 0.4 mm 1 m/S 633 mmHg 80%
    16:00 +13°C° 0.4 mm 1 m/S 633 mmHg 81%
    17:00 +12°C° 0.5 mm 1 m/S 632 mmHg 85%
    18:00 +11°C° 0.5 mm 1 m/S 632 mmHg 90%
    19:00 +11°C° 0.5 mm 1 m/S 632 mmHg 94%
    20:00 +10°C° 0.3 mm 1 m/S 632 mmHg 95%
    21:00 +8°C° 0.3 mm 0 m/S 632 mmHg 96%
    22:00 +7°C° 0.3 mm 0 m/S 632 mmHg 98%
    23:00 +7°C° 0.1 mm 0 m/S 631 mmHg 98%

    Morgen, 27 Mai, Montag

    Zeit Temperatur Niederschläge Wind Luftdruck Luftfeuchtigkeit
    00:00 +6°C° 0.1 mm 0 m/S 631 mmHg 97%
    01:00 +6°C° 0.1 mm 0 m/S 631 mmHg 97%
    02:00 +6°C° 0.1 mm 0 m/S 631 mmHg 97%
    03:00 +7°C° 0.1 mm 0 m/S 630 mmHg 97%
    04:00 +7°C° 0.1 mm 0 m/S 630 mmHg 97%
    05:00 +9°C° 0 mm 1 m/S 630 mmHg 95%
    06:00 +10°C° 0 mm 1 m/S 631 mmHg 93%
    07:00 +10°C° 0 mm 1 m/S 631 mmHg 92%
    08:00 +11°C° 0.1 mm 1 m/S 631 mmHg 91%
    09:00 +11°C° 0.1 mm 1 m/S 631 mmHg 90%
    10:00 +11°C° 0.1 mm 1 m/S 631 mmHg 90%
    11:00 +12°C° 0.3 mm 1 m/S 631 mmHg 87%
    12:00 +12°C° 0.3 mm 2 m/S 630 mmHg 85%
    13:00 +13°C° 0.3 mm 2 m/S 630 mmHg 83%
    14:00 +13°C° 0.5 mm 2 m/S 630 mmHg 84%
    15:00 +13°C° 0.5 mm 2 m/S 630 mmHg 85%
    16:00 +13°C° 0.5 mm 2 m/S 629 mmHg 86%
    17:00 +12°C° 0.9 mm 2 m/S 629 mmHg 89%
    18:00 +10°C° 0.9 mm 2 m/S 629 mmHg 93%
    19:00 +9°C° 0.9 mm 2 m/S 628 mmHg 97%
    20:00 +9°C° 1.2 mm 2 m/S 628 mmHg 97%
    21:00 +9°C° 1.2 mm 2 m/S 628 mmHg 98%
    22:00 +8°C° 1.2 mm 2 m/S 628 mmHg 98%
    23:00 +8°C° 1.5 mm 2 m/S 628 mmHg 98%

    übermorgen, 28 Mai, Dienstag

    Zeit Temperatur Niederschläge Wind Luftdruck Luftfeuchtigkeit
    00:00 +8°C° 1.5 mm 2 m/S 627 mmHg 98%
    01:00 +7°C° 1.5 mm 2 m/S 627 mmHg 98%
    02:00 +7°C° 1.7 mm 2 m/S 627 mmHg 98%
    03:00 +7°C° 1.7 mm 2 m/S 626 mmHg 98%
    04:00 +7°C° 1.7 mm 2 m/S 626 mmHg 98%
    05:00 +7°C° 2.1 mm 2 m/S 626 mmHg 98%
    06:00 +7°C° 2.1 mm 2 m/S 626 mmHg 98%
    07:00 +7°C° 2.1 mm 2 m/S 626 mmHg 98%
    08:00 +7°C° 1.5 mm 2 m/S 626 mmHg 97%
    09:00 +7°C° 1.5 mm 2 m/S 626 mmHg 97%
    10:00 +7°C° 1.5 mm 2 m/S 627 mmHg 97%
    11:00 +7°C° 1.1 mm 2 m/S 627 mmHg 97%
    12:00 +6°C° 1.1 mm 2 m/S 627 mmHg 97%
    13:00 +5°C° 1.1 mm 3 m/S 627 mmHg 97%
    14:00 +5°C° 1.1 mm 3 m/S 627 mmHg 96%
    15:00 +5°C° 1.1 mm 3 m/S 626 mmHg 95%
    16:00 +6°C° 1.1 mm 2 m/S 626 mmHg 94%
    17:00 +6°C° 0.9 mm 2 m/S 627 mmHg 94%
    18:00 +5°C° 0.9 mm 2 m/S 627 mmHg 95%
    19:00 +5°C° 0.9 mm 2 m/S 627 mmHg 96%
    20:00 +4°C° 0.8 mm 2 m/S 627 mmHg 96%
    21:00 +4°C° 0.8 mm 2 m/S 627 mmHg 97%
    22:00 +3°C° 0.8 mm 2 m/S 628 mmHg 97%
    23:00 +3°C° 0.6 mm 2 m/S 628 mmHg 97%

    29 Mai, Mittwoch

    Zeit Temperatur Niederschläge Wind Luftdruck Luftfeuchtigkeit
    00:00 +3°C° 0.6 mm 2 m/S 628 mmHg 97%
    01:00 +3°C° 0.6 mm 2 m/S 628 mmHg 97%
    02:00 +3°C° 0.3 mm 2 m/S 628 mmHg 97%
    03:00 +2°C° 0.3 mm 2 m/S 628 mmHg 98%
    04:00 +1°C° 0.3 mm 3 m/S 628 mmHg 98%
    05:00 +2°C° 0.4 mm 3 m/S 628 mmHg 97%
    06:00 +2°C° 0.4 mm 3 m/S 629 mmHg 96%
    07:00 +2°C° 0.4 mm 3 m/S 629 mmHg 95%
    08:00 +2°C° 0.8 mm 3 m/S 629 mmHg 95%
    09:00 +3°C° 0.8 mm 3 m/S 630 mmHg 95%
    10:00 +3°C° 0.8 mm 3 m/S 630 mmHg 95%
    11:00 +3°C° 0.6 mm 3 m/S 630 mmHg 94%
    12:00 +4°C° 0.6 mm 3 m/S 631 mmHg 94%
    13:00 +4°C° 0.6 mm 3 m/S 631 mmHg 93%
    14:00 +4°C° 0.4 mm 3 m/S 631 mmHg 91%
    15:00 +4°C° 0.4 mm 3 m/S 631 mmHg 90%
    16:00 +5°C° 0.4 mm 3 m/S 632 mmHg 89%
    17:00 +5°C° 0.3 mm 2 m/S 632 mmHg 91%
    18:00 +5°C° 0.3 mm 2 m/S 632 mmHg 93%
    19:00 +4°C° 0.3 mm 2 m/S 632 mmHg 95%
    20:00 +4°C° 0.3 mm 2 m/S 633 mmHg 95%
    21:00 +3°C° 0.3 mm 2 m/S 633 mmHg 96%
    22:00 +4°C° 0.3 mm 1 m/S 634 mmHg 97%
    23:00 +4°C° 0.2 mm 1 m/S 634 mmHg 97%

    30 Mai, Donnerstag

    Zeit Temperatur Niederschläge Wind Luftdruck Luftfeuchtigkeit
    00:00 +4°C° 0.2 mm 1 m/S 634 mmHg 97%
    01:00 +4°C° 0.2 mm 1 m/S 635 mmHg 97%
    02:00 +4°C° 0.1 mm 1 m/S 635 mmHg 97%
    03:00 +4°C° 0.1 mm 1 m/S 635 mmHg 97%
    04:00 +4°C° 0.1 mm 1 m/S 635 mmHg 97%
    05:00 +4°C° 0 mm 1 m/S 635 mmHg 95%
    06:00 +5°C° 0 mm 1 m/S 635 mmHg 94%
    07:00 +6°C° 0 mm 1 m/S 636 mmHg 92%
    08:00 +6°C° 0 mm 1 m/S 636 mmHg 89%
    09:00 +6°C° 0 mm 2 m/S 636 mmHg 86%
    10:00 +7°C° 0 mm 2 m/S 637 mmHg 83%
    11:00 +8°C° 0 mm 2 m/S 637 mmHg 81%
    12:00 +8°C° 0 mm 2 m/S 637 mmHg 79%
    13:00 +9°C° 0 mm 2 m/S 637 mmHg 77%
    14:00 +9°C° 0 mm 2 m/S 637 mmHg 76%
    15:00 +9°C° 0 mm 2 m/S 637 mmHg 75%
    16:00 +10°C° 0 mm 2 m/S 636 mmHg 75%
    17:00 +9°C° 0 mm 2 m/S 636 mmHg 77%
    18:00 +8°C° 0 mm 2 m/S 636 mmHg 80%
    19:00 +9°C° 0 mm 1 m/S 636 mmHg 83%
    20:00 +7°C° 0 mm 1 m/S 636 mmHg 86%
    21:00 +5°C° 0 mm 1 m/S 636 mmHg 88%
    22:00 +3°C° 0 mm 1 m/S 636 mmHg 90%
    23:00 +4°C° 0 mm 1 m/S 636 mmHg 89%

    31 Mai, Freitag

    Zeit Temperatur Niederschläge Wind Luftdruck Luftfeuchtigkeit
    00:00 +5°C° 0 mm 1 m/S 636 mmHg 88%
    01:00 +5°C° 0 mm 1 m/S 636 mmHg 87%
    02:00 +5°C° 0.1 mm 1 m/S 636 mmHg 88%
    03:00 +5°C° 0.1 mm 1 m/S 636 mmHg 88%
    04:00 +5°C° 0.1 mm 1 m/S 636 mmHg 89%
    05:00 +6°C° 0.3 mm 1 m/S 636 mmHg 89%
    06:00 +7°C° 0.3 mm 1 m/S 636 mmHg 88%
    07:00 +8°C° 0.3 mm 1 m/S 636 mmHg 88%
    08:00 +8°C° 1.1 mm 1 m/S 636 mmHg 89%
    09:00 +8°C° 1.1 mm 1 m/S 637 mmHg 90%
    10:00 +8°C° 1.1 mm 1 m/S 637 mmHg 92%
    11:00 +8°C° 1.4 mm 1 m/S 636 mmHg 92%
    12:00 +8°C° 1.4 mm 1 m/S 636 mmHg 93%
    13:00 +7°C° 1.4 mm 2 m/S 636 mmHg 94%
    14:00 +8°C° 0.4 mm 2 m/S 636 mmHg 92%
    15:00 +8°C° 0.4 mm 2 m/S 637 mmHg 90%
    16:00 +9°C° 0.4 mm 2 m/S 637 mmHg 89%
    17:00 +8°C° 0.5 mm 2 m/S 637 mmHg 91%
    18:00 +8°C° 0.5 mm 2 m/S 637 mmHg 94%
    19:00 +8°C° 0.5 mm 1 m/S 637 mmHg 96%
    20:00 +8°C° 1.3 mm 1 m/S 637 mmHg 96%
    21:00 +7°C° 1.3 mm 2 m/S 638 mmHg 97%
    22:00 +6°C° 1.3 mm 2 m/S 638 mmHg 97%
    23:00 +6°C° 0.5 mm 2 m/S 638 mmHg 97%
    Mehr zeigen